Weather History for KAPA - October, 2012

Change the Weather History Date:

Tuesday, October 16, 2012

  Actual Average Record
Temperature  
Mean Temperature 59 °F -  
Max Temperature 77 °F 63 °F 77 °F (2012)
Min Temperature 41 °F 34 °F 25 °F (1999)
Degree Days  
Heating Degree Days 6    
Month to date heating degree days 240  
Growing Degree Days 11 (Base 50)    
Moisture  
Dew Point 29 °F    
Average Humidity 36    
Maximum Humidity 58    
Minimum Humidity 13    
Precipitation  
Precipitation 0.00 in - - ()
Month to date precipitation 0.29  
Year to date precipitation 13.08  
Sea Level Pressure  
Sea Level Pressure 29.65 in    
Wind  
Wind Speed 9 mph (WSW)    
Max Wind Speed 47 mph    
Max Gust Speed 66 mph    
Visibility 10 miles    
Events      
Averages and records for this station are not official NWS values.
T = Trace of Precipitation, MM = Missing Value Source: NWS Daily Summary

Daily Weather History Graph

Daily Weather History Graph

Search for Another Location

Airport or City:

Trip Planner

Search our weather history database for the weather conditions in past years. The results will help you decide how hot, cold, wet, or windy it might be!

Date:

Astronomy

Oct. 16, 2012 Rise Set
Actual Time 7:11 AM MDT 6:17 PM MDT
Civil Twilight 6:43 AM MDT 6:45 PM MDT
Nautical Twilight 6:12 AM MDT 7:16 PM MDT
Astronomical Twilight 5:41 AM MDT 7:47 PM MDT
Moon 8:36 AM MDT (10/16) 7:05 PM MDT (10/16)
Length of Visible Light 12h 01m
Length of Day
11h 06m
New Moon, 2% of the Moon is Illuminated
Oct 16
New Moon
Oct 21
First Quarter
Oct 29
Full
Nov 6
Last Quarter
Nov 13
New

Hourly Weather History & Observations

Time (MDT) Temp. Windchill Dew Point Humidity Pressure Visibility Wind Dir Wind Speed Gust Speed Precip Events Conditions
12:53 AM 45.0 °F 41.2 °F 30.9 °F 58% 29.83 in 10.0 mi SE 6.9 mph - N/A   Mostly Cloudy
1:53 AM 45.0 °F 43.5 °F 28.0 °F 52% 29.84 in 10.0 mi SW 3.5 mph - N/A   Clear
2:53 AM 55.0 °F - 25.0 °F 31% 29.79 in 10.0 mi WNW 11.5 mph - N/A   Clear
3:53 AM 46.9 °F - 28.0 °F 48% 29.79 in 10.0 mi South 6.9 mph - N/A   Clear
4:53 AM 46.0 °F 41.9 °F 26.1 °F 46% 29.79 in 10.0 mi SSE 8.1 mph - N/A   Clear
6:53 AM 45.0 °F 39.3 °F 27.0 °F 49% 29.82 in 10.0 mi SSE 11.5 mph - N/A   Clear
7:53 AM 46.9 °F - 28.0 °F 48% 29.82 in 10.0 mi South 9.2 mph - N/A   Clear
8:53 AM 54.0 °F - 32.0 °F 43% 29.81 in 10.0 mi SSE 6.9 mph - N/A   Partly Cloudy
9:53 AM 63.0 °F - 30.0 °F 29% 29.77 in 10.0 mi SW 5.8 mph - N/A   Scattered Clouds
10:53 AM 66.9 °F - 27.0 °F 22% 29.70 in 10.0 mi SSW 10.4 mph - N/A   Mostly Cloudy
11:53 AM 66.9 °F - 28.0 °F 23% 29.66 in 10.0 mi South 9.2 mph - N/A   Mostly Cloudy
12:53 PM 73.0 °F - 25.0 °F 17% 29.60 in 10.0 mi South 10.4 mph - N/A   Mostly Cloudy
1:53 PM 73.9 °F - 25.0 °F 16% 29.53 in 10.0 mi SSW 5.8 mph - N/A   Scattered Clouds
2:53 PM 77.0 °F - 23.0 °F 13% 29.47 in 10.0 mi WNW 6.9 mph 16.1 mph N/A   Scattered Clouds
3:53 PM 75.9 °F - 26.1 °F 16% 29.47 in 10.0 mi NNW 12.7 mph - N/A   Scattered Clouds
4:53 PM 75.0 °F - 28.0 °F 18% 29.48 in 10.0 mi North 6.9 mph - N/A   Scattered Clouds
5:53 PM 71.1 °F - 30.0 °F 22% 29.49 in 10.0 mi NE 4.6 mph - N/A   Scattered Clouds
6:53 PM 71.1 °F - 28.9 °F 21% 29.49 in 10.0 mi West 12.7 mph 24.2 mph N/A   Scattered Clouds
7:53 PM 69.1 °F - 28.0 °F 22% 29.49 in 10.0 mi West 12.7 mph 23.0 mph N/A   Scattered Clouds
8:53 PM 66.0 °F - 28.9 °F 25% 29.47 in 10.0 mi West 9.2 mph - N/A   Scattered Clouds
9:53 PM 66.0 °F - 30.9 °F 27% 29.48 in 10.0 mi NNW 13.8 mph - N/A   Mostly Cloudy
10:02 PM 64.4 °F - 33.8 °F 32% 29.68 in 10.0 mi North 16.1 mph 25.3 mph N/A   Mostly Cloudy
10:53 PM 57.0 °F - 36.0 °F 45% 29.56 in 10.0 mi NW 23.0 mph 33.4 mph N/A   Mostly Cloudy
11:53 PM 51.1 °F - 30.9 °F 46% 29.67 in 10.0 mi NW 39.1 mph 58.7 mph N/A   Overcast